EW6790 Weather Reports


Display with metric or nautical units.
time (UTC)temp
F
wind
direction
speed
MPH
gust
MPH
rain 1hr
in
rain 24hr
in
rain mn
in
humidity
%
barometer
mb
20260905001539 90 65 0.0 0.0 0.00 0.00 0.00 76 1009.2
20260905000031 96 340 0.0 0.0 0.00 0.00 0.00 68 1009.1
20260904234518 97 340 0.0 0.0 0.00 0.00 0.00 65 1009.1
20260904233120 98 339 0.0 0.0 0.00 0.00 0.00 63 1009.1
20260904231557 95 340 0.0 1.0 0.00 0.00 0.00 67 1009.1
20260904230108 95 28 0.0 2.0 0.00 0.00 0.00 66 1009.0
20260904224534 97 49 0.0 1.0 0.00 0.00 0.00 66 1008.9
20260904223035 94 68 0.0 3.0 0.00 0.00 0.00 69 1008.8
20260904221511 94 16 0.0 5.0 0.00 0.00 0.00 65 1008.8
20260904220008 94 102 1.0 4.0 0.00 0.00 0.00 65 1008.8
20260904214550 92 67 1.0 5.0 0.00 0.00 0.00 67 1008.8
20260904213050 94 288 0.0 5.0 0.00 0.00 0.00 65 1008.8
20260904211529 93 115 0.0 3.0 0.00 0.00 0.00 65 1008.9
20260904210031 94 78 2.0 5.0 0.00 0.00 0.00 62 1008.8
20260904204507 93 256 0.0 4.0 0.00 0.00 0.00 64 1008.8
20260904203006 93 68 0.0 4.0 0.00 0.00 0.00 64 1008.8
20260904201553 92 94 3.0 5.0 0.00 0.00 0.00 69 1008.8
20260904200054 93 70 2.0 5.0 0.00 0.00 0.00 65 1008.8
20260904194537 92 103 1.0 4.0 0.00 0.00 0.00 66 1008.8
20260904193023 92 103 0.0 4.0 0.00 0.00 0.00 69 1008.8
20260904191516 92 118 1.0 5.0 0.00 0.00 0.00 67 1008.8
20260904190009 91 146 1.0 6.0 0.00 0.00 0.00 68 1008.9
20260904184504 91 72 0.0 6.0 0.00 0.00 0.00 68 1009.0
20260904183002 91 51 1.0 4.0 0.00 0.00 0.00 68 1009.0
20260904181600 90 148 1.0 5.0 0.00 0.00 0.00 70 1009.0
20260904180108 89 101 4.0 6.0 0.00 0.00 0.00 68 1008.9
20260904174616 89 117 0.0 5.0 0.00 0.00 0.00 71 1008.9
20260904173051 88 112 3.0 6.0 0.00 0.00 0.00 72 1009.0
20260904171534 87 70 3.0 5.0 0.00 0.00 0.00 72 1009.0
20260904170044 87 67 2.0 5.0 0.00 0.00 0.00 72 1009.0
20260904164513 87 53 2.0 4.0 0.00 0.00 0.00 71 1008.9
20260904163010 86 118 1.0 3.0 0.00 0.00 0.00 74 1008.9
20260904161604 85 252 0.0 3.0 0.00 0.00 0.00 75 1008.8
20260904160052 85 231 0.0 3.0 0.00 0.00 0.00 76 1008.7
20260904154534 84 273 2.0 4.0 0.00 0.00 0.00 76 1008.8
20260904153034 83 275 2.0 6.0 0.00 0.00 0.00 77 1008.8
20260904151516 82 267 2.0 7.0 0.00 0.00 0.00 80 1008.8
20260904150017 81 262 2.0 7.0 0.00 0.00 0.00 81 1008.9
20260904144558 81 276 2.0 6.0 0.00 0.00 0.00 81 1008.9
20260904143057 81 253 2.0 7.0 0.00 0.00 0.00 81 1008.9
20260904141539 80 248 4.0 8.0 0.00 0.00 0.00 82 1008.9
20260904140040 80 202 3.0 6.0 0.00 0.00 0.00 83 1008.7
20260904134520 80 196 2.0 4.0 0.00 0.00 0.00 83 1008.7
20260904133020 78 188 2.0 4.0 0.00 0.00 0.00 84 1008.8
20260904131503 0 0.0 0.0 0.00 0.04 0.00 1008.9
20260904124555 0 0.0 0.0 0.00 0.04 0.00 1008.8
20260904123050 0 0.0 0.0 0.00 0.04 0.00 1008.6
20260904121546 0 0.0 0.0 0.00 0.04 0.00 1008.4
20260904120049 0 0.0 0.0 0.00 0.04 0.00 1008.4
20260904114537 0 0.0 0.0 0.00 0.04 0.00 1008.2
20260904113033 0 0.0 0.0 0.00 0.04 0.00 1008.1
20260904111510 0 0.0 0.0 0.00 0.04 0.00 1007.8
20260904110006 0 0.0 0.0 0.00 0.04 0.00 1007.7
20260904104545 0 0.0 0.0 0.00 0.04 0.00 1007.8
20260904103040 0 0.0 0.0 0.00 0.04 0.00 1007.7
20260904101518 0 0.0 0.0 0.00 0.04 0.00 1007.7
20260904100025 72 202 3.0 3.0 0.00 0.04 0.00 83 1007.5
20260904094559 73 204 2.0 3.0 0.00 0.04 0.00 85 1007.6
20260904093100 74 209 3.0 5.0 0.00 0.04 0.00 86 1007.4
20260904091535 74 216 3.0 6.0 0.00 0.05 0.00 86 1007.3
20260904090039 74 212 3.0 6.0 0.00 0.05 0.00 86 1007.2
20260904084514 75 203 4.0 7.0 0.00 0.05 0.00 87 1007.2
20260904083013 75 207 4.0 7.0 0.00 0.05 0.00 87 1007.2
20260904081554 76 204 4.0 7.0 0.00 0.05 0.00 87 1007.2
20260904080054 75 191 4.0 7.0 0.00 0.05 0.00 86 1007.2
20260904074537 75 200 4.0 6.0 0.00 0.05 0.00 86 1007.3
20260904073050 75 191 4.0 6.0 0.00 0.05 0.00 86 1007.4
20260904071516 76 167 4.0 7.0 0.00 0.05 0.00 86 1007.4
20260904070017 76 190 5.0 7.0 0.00 0.05 0.00 87 1007.4
20260904064558 76 185 5.0 7.0 0.00 0.05 0.00 87 1007.5
20260904063058 77 172 4.0 7.0 0.00 0.05 0.00 87 1007.4
20260904061537 77 166 5.0 8.0 0.00 0.05 0.00 87 1007.5
20260904060037 76 174 5.0 7.0 0.00 0.05 0.00 86 1007.4
20260904054518 77 186 5.0 9.0 0.00 0.05 0.00 87 1007.3
20260904053017 77 170 5.0 10.0 0.00 0.05 0.00 87 1007.2
20260904051600 78 169 6.0 9.0 0.00 0.05 0.00 87 1007.1
20260904050059 77 169 6.0 8.0 0.00 0.05 0.00 86 1007.2
20260904044542 77 169 5.0 8.0 0.00 0.05 0.00 81 1007.2
20260904043037 76 146 1.0 4.0 0.00 0.05 0.00 82 1007.3
20260904041518 77 160 3.0 6.0 0.00 0.05 0.00 83 1007.3
20260904040016 77 167 4.0 7.0 0.00 0.05 0.00 85 1007.2
20260904034602 78 153 5.0 9.0 0.00 0.05 0.00 86 1007.1
20260904033107 78 166 4.0 8.0 0.00 0.05 0.00 85 1007.3
20260904031538 77 136 4.0 6.0 0.00 0.05 0.00 85 1007.3
20260904030037 78 141 3.0 6.0 0.00 0.05 0.00 86 1007.2
20260904024518 78 143 1.0 4.0 0.00 0.05 0.00 86 1007.1
20260904023015 79 120 1.0 2.0 0.00 0.05 0.00 87 1007.1
20260904021616 79 142 1.0 2.0 0.00 0.05 0.00 87 1007.1
20260904020100 80 206 0.0 1.0 0.00 0.05 0.00 86 1006.8
20260904014636 80 170 1.0 5.0 0.00 0.05 0.00 86 1006.6
20260904013035 81 186 4.0 8.0 0.00 0.05 0.00 85 1006.3
20260904011532 81 161 6.0 10.0 0.00 0.05 0.00 85 1006.1
20260904010013 82 181 6.0 9.0 0.00 0.05 0.00 84 1006.1
20260904004513 82 169 5.0 8.0 0.00 0.05 0.00 83 1006.1
20260904003106 83 184 4.0 7.0 0.00 0.05 0.00 82 1006.1